GFSSGP_prec_cloud_084.txt.gz
Cloud_Cover
100 100 100 100 70 99 2 0 0 0 0 0 0 0 0 0 0 0 0 0 0 11 0 0 0 0 1 89 28 5 3 5 51 7 34 100 59 69 87 32 5 62 0 28 40 66 99 100 100
100 100 100 100 100 100 20 0 0 3 1 0 0 0 0 0 0 0 0 0 0 8 0 0 0 0 0 0 8 56 33 38 5 33 46 82 100 50 5 8 7 80 3 6 90 100 91 100 100
100 100 100 100 100 100 66 1 0 0 0 0 0 0 0 0 0 0 0 0 0 0 0 0 0 0 0 0 0 4 12 2 3 0 1 3 6 5 0 5 5 16 49 38 99 100 100 100 100
100 100 100 100 100 100 7 0 0 0 0 0 0 0 0 0 0 0 0 0 0 0 0 0 0 1 44 0 0 0 0 0 0 2 0 0 1 4 0 9 2 5 57 100 55 95 100 100 100
90 31 96 100 100 92 17 8 0 0 0 0 0 0 0 0 0 0 0 0 1 3 44 23 5 4 1 1 1 2 0 1 0 7 0 1 3 3 3 2 8 5 6 97 12 5 97 5 4
5 30 20 64 100 27 4 82 0 0 0 0 0 0 0 0 0 0 0 5 42 5 39 98 10 5 5 3 4 3 4 1 0 2 0 0 1 4 5 5 5 5 14 75 6 5 5 5 46
99 93 21 96 78 59 2 6 3 0 0 0 0 0 0 0 0 0 0 1 5 1 5 9 5 4 4 3 4 19 0 0 0 0 0 0 0 1 0 4 5 15 9 22 5 9 79 65 100
5 42 85 100 16 8 38 71 22 0 3 0 0 0 0 0 0 0 0 0 5 0 8 18 14 0 5 6 11 8 71 41 1 0 0 0 0 4 0 5 3 52 7 25 90 56 98 85 100
3 5 55 80 62 6 90 6 88 15 30 0 0 0 0 0 0 0 0 0 1 0 1 5 37 14 30 100 99 99 89 27 1 5 6 5 5 4 4 5 5 5 71 82 100 65 45 21 100
4 5 90 32 96 95 22 0 54 4 10 0 0 0 0 0 0 0 0 1 0 0 0 5 95 99 100 94 80 90 100 78 21 72 35 5 5 5 5 7 19 5 40 78 92 100 100 44 100
2 8 77 94 71 100 20 0 0 0 8 18 0 0 0 0 0 0 0 5 0 0 0 5 29 52 80 66 82 92 94 100 100 54 84 34 26 4 5 5 62 23 30 18 5 5 74 90 100
0 4 9 29 91 87 68 0 4 0 3 35 75 0 0 0 0 0 0 0 1 1 0 5 5 24 37 97 97 90 90 76 93 81 93 56 18 4 34 60 5 16 99 70 14 41 56 59 100
0 0 0 5 54 95 8 1 5 4 3 77 100 41 0 0 0 0 0 0 0 0 0 3 8 30 62 100 48 91 100 38 26 66 94 69 5 5 6 6 6 89 73 62 8 8 49 100 100
0 0 0 0 0 3 26 29 54 5 0 46 90 9 16 5 0 0 0 0 0 0 1 0 6 5 91 47 93 100 100 98 53 76 100 100 36 5 5 26 6 16 43 95 86 5 57 80 31
0 0 0 0 0 4 44 6 40 82 5 5 35 81 13 0 4 0 0 0 0 0 0 0 4 2 34 41 50 100 100 100 99 17 99 82 39 7 4 5 5 5 60 99 5 5 6 55 30
0 0 0 0 0 41 40 10 8 59 59 30 73 87 59 0 0 5 0 0 0 0 0 0 0 2 36 34 42 100 100 94 98 40 60 23 6 9 5 5 5 2 3 100 100 5 5 76 60
0 0 0 0 3 1 5 71 88 5 3 4 14 43 69 11 0 5 0 0 0 0 0 2 0 2 30 100 100 100 100 100 100 23 51 55 70 11 5 6 5 5 5 94 100 12 6 93 100
0 0 0 0 2 5 30 100 100 55 5 5 0 0 0 0 0 0 0 0 0 0 0 0 4 0 1 5 82 100 100 100 91 59 39 80 70 100 40 14 20 6 14 14 18 5 9 100 100
0 0 0 0 1 1 12 89 60 66 14 5 0 0 0 0 5 2 0 0 0 0 0 0 0 2 2 17 19 100 100 100 98 77 30 100 71 100 100 25 11 6 35 40 12 22 32 88 100
0 0 0 0 0 0 2 5 37 94 4 5 0 0 0 0 5 5 10 40 28 0 0 0 0 0 0 2 5 5 60 100 100 100 100 100 100 100 100 25 22 5 14 8 100 100 40 86 40
0 0 0 0 0 0 0 3 5 33 3 3 0 0 0 0 14 5 11 94 95 2 0 0 0 0 0 1 6 6 95 100 100 100 80 79 37 46 11 18 21 20 12 19 11 57 98 99 66
0 0 0 0 0 0 0 0 0 0 0 0 0 1 0 0 56 18 17 87 55 27 13 1 0 0 0 0 0 10 6 100 99 100 81 100 99 100 100 84 83 66 19 36 20 9 10 23 96
0 0 4 0 0 0 0 0 0 0 0 0 0 0 0 0 4 5 4 2 5 7 0 0 0 0 10 0 0 0 22 99 100 100 46 100 72 100 100 100 100 100 99 100 99 51 6 5 9
0 0 0 5 3 3 40 0 0 0 0 0 0 0 0 4 4 5 25 45 92 1 0 0 0 6 16 0 0 1 27 94 100 100 94 75 100 100 72 100 100 100 71 100 100 100 100 99 59
3 2 2 5 5 87 100 0 5 0 0 0 0 0 0 0 56 8 5 100 31 5 2 40 0 17 42 17 6 83 90 67 28 26 45 75 100 100 100 100 100 55 56 100 100 100 100 100 100
86 100 89 5 71 100 71 3 5 5 0 0 0 0 0 0 0 2 5 5 2 0 12 0 0 0 0 1 13 76 100 100 100 5 100 10 86 100 100 97 100 100 100 100 100 100 100 100 97
40 86 8 43 79 83 49 34 7 5 5 0 0 0 0 2 14 9 2 0 3 29 0 0 0 0 0 0 18 95 100 100 100 64 51 100 93 100 94 100 92 100 100 91 100 100 100 96 78
100 34 100 2 5 33 39 95 82 5 5 2 0 2 2 100 71 25 12 11 42 10 0 0 0 1 16 0 9 61 5 79 100 67 11 63 41 99 93 100 52 100 100 100 100 100 100 75 74
100 31 100 48 40 6 100 100 48 5 5 31 85 96 80 37 3 3 21 100 100 5 5 1 0 0 0 0 0 0 4 99 100 100 99 80 42 8 5 29 100 100 100 100 100 100 100 98 95
100 80 100 100 6 7 82 72 56 14 5 5 7 5 5 100 95 9 65 100 100 95 6 1 0 0 0 0 0 0 4 57 74 100 100 100 100 100 22 36 86 100 100 93 94 47 100 84 98

GFSSGP_prec_cloud_087.txt.gz
Cloud_Cover
94 100 100 100 100 100 7 5 0 0 0 0 0 0 0 0 0 0 0 0 0 0 1 1 0 5 55 4 100 100 100 42 87 95 99 96 100 54 99 34 95 100 91 100 32 5 5 65 100
70 83 100 100 99 30 1 0 0 0 0 0 0 0 0 0 0 5 6 2 0 0 10 4 0 0 9 29 95 28 100 100 100 100 95 100 100 100 72 76 100 100 95 6 6 35 94 100 100
5 0 4 79 24 5 5 3 0 0 0 0 0 0 0 0 0 0 0 3 5 16 3 0 0 7 0 6 20 71 100 98 9 11 17 77 54 76 100 99 79 83 3 7 34 83 100 100 100
1 19 17 4 0 5 11 7 0 0 0 0 0 0 0 0 0 0 1 69 100 91 10 5 1 8 4 29 0 4 5 9 65 47 74 97 94 98 71 25 23 5 5 100 100 100 70 100 100
3 2 3 4 1 4 29 1 0 0 0 0 0 0 0 0 0 3 5 66 56 88 58 5 2 2 4 1 7 1 2 5 4 6 3 7 14 6 13 2 1 3 5 87 100 94 100 100 100
6 21 5 15 3 3 50 36 60 0 0 0 0 0 0 0 0 1 3 4 5 10 37 26 4 0 1 3 0 0 0 1 0 0 3 4 11 6 5 12 4 3 22 32 96 42 63 99 44
77 81 62 2 5 4 0 1 93 54 0 0 0 0 0 0 0 0 0 0 1 8 28 24 19 10 5 5 14 56 0 0 0 12 0 6 6 8 6 5 10 5 63 83 32 6 98 18 5
5 12 43 80 9 5 5 1 65 2 0 0 0 0 0 0 0 0 0 0 0 1 5 5 28 10 88 26 28 17 84 2 0 1 0 0 1 2 5 5 5 58 100 100 70 20 5 5 46
5 5 61 82 100 14 85 8 0 0 0 0 0 0 0 0 0 0 0 0 0 0 8 26 21 67 77 83 94 100 100 71 0 0 0 0 0 0 0 4 5 5 35 100 100 99 62 83 100
5 2 0 6 78 5 47 14 5 0 2 8 0 0 0 0 0 0 0 0 0 0 36 42 25 14 65 26 66 100 100 100 15 29 90 41 7 5 0 3 32 34 49 100 100 100 14 100 100
4 0 0 4 15 51 12 25 0 63 13 42 4 0 0 0 0 0 0 0 0 0 4 13 20 22 74 76 91 58 100 100 98 74 77 67 5 6 0 5 33 71 63 100 100 100 92 22 98
0 0 0 4 5 38 9 5 5 100 20 78 68 50 0 0 0 0 0 0 0 0 0 5 5 21 22 70 99 95 100 96 79 100 81 71 32 21 5 24 73 40 100 28 90 100 97 79 86
0 4 0 0 5 4 18 2 3 85 93 100 81 10 5 0 0 0 0 0 0 0 0 1 3 5 18 100 100 100 100 97 75 97 91 42 89 34 5 7 12 76 89 80 91 26 40 36 54
0 0 0 0 2 5 5 5 1 23 62 95 100 99 32 60 0 0 0 0 0 0 0 0 0 5 5 88 92 99 100 100 45 100 98 85 74 12 10 12 12 14 100 98 63 41 21 65 99
0 0 0 0 0 5 1 3 90 99 48 12 100 100 99 11 5 0 2 0 0 0 0 0 0 5 19 16 100 83 100 73 99 79 100 69 52 12 5 32 100 29 49 100 92 12 38 25 89
0 0 0 0 0 1 1 4 59 45 23 100 31 100 100 99 57 0 0 0 0 0 0 0 0 0 4 5 16 100 100 82 99 89 99 90 59 5 5 11 5 5 24 45 99 17 22 45 90
0 0 0 0 0 9 47 0 5 42 94 97 5 39 99 87 35 0 1 5 0 0 0 0 0 0 0 0 20 91 100 100 99 100 100 44 98 78 17 5 5 64 19 29 100 16 5 14 6
1 0 0 0 2 9 48 1 1 4 17 100 3 0 0 0 68 5 5 35 5 0 0 0 0 0 0 0 10 19 100 99 100 89 99 82 82 96 100 53 5 6 28 22 20 78 77 5 6
0 0 0 0 50 3 4 5 5 5 4 12 98 0 0 0 37 0 5 90 57 10 0 0 0 0 0 2 9 14 5 5 100 79 100 90 98 67 99 100 57 15 15 74 9 97 68 24 4
0 0 0 0 3 0 4 4 57 2 2 5 1 0 0 0 0 5 3 28 44 100 97 0 0 0 0 0 1 0 6 8 8 99 96 100 88 100 94 100 99 47 29 24 30 7 36 58 22
0 0 0 0 49 2 0 1 2 5 5 0 0 0 0 0 0 2 3 5 98 88 2 0 0 0 0 0 22 21 1 5 8 48 100 96 100 91 66 100 99 20 99 25 96 12 37 64 58
0 0 0 0 33 2 1 0 0 0 0 0 0 0 0 0 2 5 0 4 100 95 4 5 0 0 5 14 3 0 5 41 5 99 43 90 88 100 14 15 70 39 72 74 56 98 54 100 83
0 0 0 0 0 42 0 0 6 0 0 0 0 0 0 0 5 5 14 21 100 47 7 5 4 3 14 8 0 0 0 6 5 27 96 8 66 100 100 100 38 98 100 100 100 88 100 44 11
0 0 0 0 0 0 0 0 95 0 0 0 0 0 0 0 0 28 12 99 100 55 95 5 0 6 28 1 31 100 100 88 28 52 32 6 21 98 100 100 71 100 100 100 100 100 100 100 100
100 90 2 0 0 0 4 1 91 2 0 0 0 2 5 5 0 5 5 67 99 68 4 0 0 62 28 71 91 87 71 76 100 84 6 14 46 100 100 100 90 100 98 100 100 100 100 93 99
5 12 63 5 0 0 0 3 85 14 0 0 2 4 5 5 3 2 0 7 11 4 0 0 14 99 60 41 29 24 37 100 100 100 100 92 100 54 100 100 95 100 100 100 100 85 54 97 99
96 100 100 100 5 35 0 4 38 5 2 0 5 5 7 5 5 5 0 5 1 0 9 2 14 27 36 22 5 36 2 5 48 100 100 100 100 90 100 100 100 100 100 100 100 100 100 100 100
100 100 100 100 59 38 3 0 22 5 5 5 5 5 5 6 5 11 4 3 28 82 19 0 5 1 5 0 1 0 0 0 10 100 100 100 100 97 33 100 100 100 96 62 99 91 100 100 100
100 100 60 100 20 5 0 0 5 2 5 5 5 5 12 28 88 58 85 100 80 31 13 100 71 0 5 5 6 0 0 0 0 63 98 58 99 99 24 100 100 100 100 100 100 100 100 97 94
100 96 100 13 100 5 5 0 0 0 5 5 5 6 64 98 65 92 69 82 43 21 97 95 55 35 98 5 0 0 0 1 12 0 66 82 36 100 98 58 62 75 78 99 100 100 80 20 33

GFSSGP_prec_cloud_093.txt.gz
Cloud_Cover
0 31 49 95 27 0 0 0 0 0 0 0 0 0 0 0 0 0 0 0 0 0 2 0 45 98 95 6 3 3 5 100 100 100 100 100 93 100 100 84 82 71 83 74 100 100 97 83 99
0 91 78 98 2 0 0 0 0 0 0 0 0 0 0 0 0 0 0 0 0 0 0 0 5 92 16 57 48 6 7 8 94 100 100 100 100 100 32 32 80 100 27 97 93 60 100 99 100
2 86 98 20 0 0 0 0 0 0 0 0 0 0 0 0 0 0 0 0 0 0 0 0 0 4 19 84 15 5 6 73 13 65 6 99 98 100 100 95 100 100 64 96 98 100 100 100 10
12 37 60 39 0 0 1 0 0 0 0 0 0 0 0 0 0 0 0 0 0 3 5 5 5 4 8 5 100 99 70 97 64 72 57 100 100 35 100 100 100 100 100 96 30 48 48 5 53
5 5 0 0 0 3 2 0 0 0 0 0 0 0 0 0 0 0 0 0 5 5 5 46 47 14 5 6 1 64 100 94 100 100 100 100 100 100 86 90 35 45 13 5 64 5 5 5 99
3 5 0 0 0 0 4 5 0 0 0 0 0 0 0 0 0 0 0 0 5 12 97 98 99 100 97 67 3 0 32 99 5 17 99 93 100 100 9 34 10 6 17 4 4 5 9 61 92
5 5 0 0 0 0 4 5 5 21 0 0 0 0 0 0 0 0 0 0 4 6 95 78 85 96 100 100 81 11 3 7 8 5 5 8 5 40 5 5 5 5 8 0 5 26 6 93 63
5 5 0 0 0 0 0 5 5 64 14 0 0 0 0 0 0 0 0 0 0 1 5 20 28 60 100 100 100 60 0 4 0 4 3 5 22 56 5 5 1 0 12 6 62 26 20 95 100
5 5 0 0 0 0 0 0 4 5 90 8 2 0 0 0 0 0 0 5 2 11 5 5 8 43 95 100 100 100 1 1 2 4 0 0 10 5 3 5 5 10 6 52 10 18 35 69 81
3 5 4 0 0 0 0 0 0 5 5 79 7 5 0 0 0 0 0 0 0 37 5 19 19 8 47 73 100 100 98 1 2 27 0 1 5 32 7 4 5 40 52 96 6 88 97 40 10
0 0 0 0 0 0 0 0 0 5 3 7 100 55 0 0 0 0 0 0 0 0 5 5 1 46 62 95 93 100 76 60 49 6 4 5 5 5 5 13 15 24 19 31 14 6 5 5 78
0 0 0 0 0 0 0 0 0 4 59 5 35 96 100 15 0 0 0 0 0 0 0 0 0 5 98 100 98 100 99 5 31 8 5 8 5 9 5 5 5 6 11 56 30 26 23 100 100
0 0 5 1 0 0 0 0 0 4 4 5 82 26 92 46 35 0 0 0 0 0 0 0 0 4 95 93 81 97 100 22 52 6 14 5 20 64 14 7 5 22 97 98 94 33 5 94 100
0 0 0 0 0 0 0 0 0 20 5 5 82 20 9 98 55 16 3 0 0 0 0 0 0 0 4 86 77 100 100 97 88 66 97 70 90 80 88 11 5 5 5 82 100 100 8 31 52
0 0 0 3 0 1 5 0 0 0 28 5 63 92 18 6 26 5 5 0 0 0 0 0 0 0 0 1 89 97 97 98 100 100 99 66 99 100 19 18 5 5 15 23 68 100 37 66 5
0 0 0 4 0 3 4 0 0 0 2 5 20 44 80 0 11 4 5 4 0 0 0 0 0 0 0 0 0 3 90 66 43 90 95 100 73 36 7 5 4 4 5 21 5 5 16 94 21
0 0 0 0 0 0 4 4 0 0 0 3 47 88 5 5 8 12 7 1 5 2 5 0 0 0 0 0 0 0 0 10 5 5 84 100 96 24 5 5 5 1 5 8 5 5 5 5 6
0 0 0 0 0 0 0 0 0 0 0 0 3 6 76 3 4 28 5 5 0 2 4 1 0 0 0 0 0 0 0 4 15 5 10 98 99 100 60 5 5 5 5 9 87 30 5 5 5
0 0 0 0 0 0 0 0 0 0 0 0 0 4 94 12 3 0 3 5 5 1 1 5 2 0 0 0 0 0 0 1 5 2 3 15 5 67 100 60 9 8 5 5 5 15 5 5 5
0 0 0 0 0 0 0 0 0 0 0 0 3 5 27 14 0 0 0 4 5 1 5 46 4 0 0 0 0 0 0 10 83 34 1 5 4 10 70 98 28 84 88 11 7 6 7 12 5
0 0 0 0 0 0 0 0 0 0 0 0 4 5 5 4 0 0 0 4 5 5 5 24 5 1 4 0 0 6 14 60 100 27 51 28 18 56 34 26 85 76 98 98 47 20 56 28 12
0 0 0 0 0 0 0 0 0 0 0 0 3 0 4 5 5 0 0 2 13 92 63 100 27 5 3 0 0 3 8 100 100 100 100 78 7 22 98 71 37 100 54 75 100 72 44 40 41
0 0 0 0 0 0 0 0 0 0 0 4 5 5 0 0 1 0 0 0 60 98 78 54 5 2 4 0 0 22 20 59 100 37 45 100 96 49 82 89 98 100 100 65 100 100 76 67 30
0 26 38 91 92 3 0 0 0 0 0 4 27 5 3 4 2 5 0 2 21 8 5 5 3 5 3 0 0 0 39 14 100 100 99 100 100 100 100 100 100 100 100 75 63 88 95 99 92
26 100 100 100 100 38 0 0 0 0 0 0 1 2 4 5 5 5 5 0 2 0 32 10 4 4 0 0 0 0 68 16 50 100 43 98 100 100 100 86 99 100 100 100 93 80 96 100 90
100 100 100 100 100 68 0 0 0 0 0 0 0 0 0 5 5 43 15 0 13 50 5 5 5 0 0 0 3 0 2 13 0 57 5 100 88 100 100 86 97 63 100 100 95 100 100 100 98
98 100 100 98 100 48 98 0 0 0 0 0 0 0 0 4 33 100 24 0 20 11 5 5 5 0 0 5 2 0 0 0 5 5 4 5 25 19 5 60 79 83 76 100 100 100 99 100 81
96 68 17 41 29 100 15 0 0 0 0 0 0 0 0 0 7 40 5 5 1 1 5 5 5 5 5 3 0 0 5 5 5 58 14 27 7 16 5 24 100 73 100 100 100 97 98 100 100
99 97 100 84 95 88 28 73 0 0 0 0 0 13 0 0 0 5 5 5 5 2 5 5 3 8 5 8 58 2 18 100 84 84 56 5 9 3 22 91 37 24 92 100 87 83 93 96 86
99 85 89 41 70 100 53 1 0 0 0 0 2 79 97 64 4 0 3 5 4 5 55 5 5 5 5 3 62 94 100 98 100 100 100 5 22 10 10 0 5 5 100 100 100 96 100 92 67

GFSSGP_prec_cloud_096.txt.gz
Cloud_Cover
0 60 98 85 32 0 0 0 0 0 0 0 0 0 0 0 0 26 0 0 0 0 0 0 0 17 32 86 95 24 5 82 100 100 100 100 100 100 13 100 82 68 46 87 84 100 92 99 100
45 59 93 89 5 0 0 0 0 0 0 0 0 0 0 0 0 0 0 0 0 0 0 0 8 22 5 5 5 9 89 40 100 100 100 100 100 100 100 100 95 92 96 86 63 92 98 100 98
8 64 68 0 5 0 0 0 0 0 0 0 0 0 0 0 0 0 0 0 0 0 0 0 0 0 0 0 2 5 5 29 100 100 100 100 100 100 100 100 96 95 100 66 23 58 100 100 100
30 79 8 12 4 0 0 0 0 0 0 0 0 0 0 0 0 0 0 0 0 1 8 2 0 13 0 5 4 1 44 52 100 100 100 100 100 100 100 100 100 100 100 71 86 100 100 100 100
5 0 4 30 0 0 0 0 0 0 0 0 0 0 0 0 0 0 5 5 9 5 5 50 62 50 0 11 1 5 5 12 8 5 53 88 89 100 100 100 100 100 100 98 68 17 99 73 100
0 1 38 4 2 0 0 0 0 0 0 0 0 0 0 0 0 0 4 33 5 4 7 72 93 75 20 12 0 5 5 85 97 100 25 37 100 100 100 100 100 100 100 100 40 58 5 89 36
0 0 5 2 0 0 0 0 4 0 0 0 0 0 0 0 0 0 0 13 5 5 14 6 22 100 86 69 55 0 26 59 100 94 100 100 100 100 92 78 100 100 100 79 5 66 5 10 53
4 0 4 2 0 0 0 0 0 1 2 0 0 0 0 0 0 0 0 0 5 5 9 48 30 100 100 100 83 0 0 0 0 3 99 25 100 100 5 11 15 14 8 5 5 9 8 65 100
2 0 6 2 0 0 0 0 0 0 5 2 0 0 0 0 0 0 0 0 0 3 4 9 67 65 96 99 100 0 7 0 0 1 1 1 78 18 9 5 5 7 8 0 1 11 5 98 100
2 1 60 4 0 0 0 0 0 1 5 0 5 77 0 0 0 0 0 0 0 0 0 4 5 80 96 99 100 54 47 7 8 11 20 49 99 86 99 10 3 2 1 4 84 8 5 95 100
0 0 20 5 5 0 0 0 0 1 3 5 3 5 50 0 0 0 0 0 0 0 0 0 2 31 94 68 99 84 21 62 20 5 27 74 42 20 0 35 2 10 8 35 23 24 85 98 18
0 0 0 1 0 0 0 0 0 0 5 19 5 68 73 0 0 0 0 0 0 0 0 0 0 5 84 96 56 96 5 20 5 33 9 25 19 25 20 52 39 61 98 95 5 57 43 5 8
0 0 0 2 5 0 0 0 0 0 0 12 77 17 40 3 5 0 0 0 0 0 0 0 2 0 48 72 28 100 72 21 33 41 18 15 5 5 5 38 34 56 100 100 58 9 9 98 100
0 0 0 0 2 5 2 0 0 0 0 0 44 80 48 88 1 5 0 0 0 0 0 0 0 2 1 11 90 94 100 38 85 5 54 46 5 6 34 50 12 11 66 79 21 55 19 64 100
0 0 0 0 2 5 1 0 0 0 0 0 6 57 71 38 4 4 5 2 0 0 0 0 0 0 0 0 6 75 76 92 100 95 57 26 34 72 98 29 12 42 52 99 100 37 32 34 91
0 0 0 0 0 3 1 0 0 2 0 0 1 51 5 6 5 0 4 2 1 1 0 0 0 0 0 0 0 0 0 36 68 79 95 100 43 5 5 15 25 20 39 66 100 100 84 46 49
0 0 0 0 0 0 0 0 2 0 0 0 0 0 9 5 3 5 0 4 5 5 23 1 0 0 0 0 0 0 0 0 4 19 94 100 88 12 5 17 46 3 22 59 37 100 100 80 82
0 0 0 0 0 0 0 0 0 0 0 0 2 0 5 5 5 8 16 2 5 5 20 36 4 0 0 0 1 0 0 0 0 2 18 90 100 95 56 94 28 16 4 24 52 86 72 80 62
0 0 0 0 0 0 0 0 0 0 0 0 0 0 1 5 40 0 0 0 1 5 5 5 6 12 0 0 0 0 0 0 0 13 15 28 41 100 100 100 5 13 7 13 19 33 8 20 19
0 0 0 0 0 0 0 0 0 0 0 0 0 0 0 5 98 29 0 0 0 3 4 5 5 9 5 0 0 0 0 13 93 67 45 9 12 11 100 98 26 8 5 27 18 34 12 8 88
0 0 0 0 1 2 0 0 0 0 0 0 0 0 0 5 86 86 3 0 0 0 0 5 5 21 5 5 1 0 2 68 100 58 37 75 31 36 44 100 72 24 29 23 50 42 34 5 23
0 0 0 0 0 4 6 3 0 0 0 0 0 0 0 2 5 100 7 0 0 0 1 5 98 92 5 0 0 0 0 1 8 16 32 71 40 35 46 65 99 80 99 43 100 79 18 28 8
0 0 0 72 61 80 26 67 1 0 0 0 0 0 0 4 5 74 67 3 1 2 6 19 100 98 5 0 0 0 4 1 6 3 92 72 26 31 6 91 84 100 28 64 100 62 97 100 72
0 0 58 100 100 100 100 100 100 9 0 0 0 5 17 27 2 0 5 55 5 3 51 5 100 97 2 2 0 0 0 8 27 0 17 100 88 100 88 54 46 37 62 64 71 98 82 97 74
0 2 97 100 100 100 100 100 100 96 1 0 0 2 79 41 60 6 2 32 5 3 25 22 5 5 5 4 0 0 0 2 98 19 32 100 96 100 89 99 99 100 100 99 100 100 82 47 34
90 75 100 100 100 100 100 14 5 28 2 0 0 0 0 5 23 6 2 6 5 5 2 5 3 82 5 0 0 0 0 0 15 3 16 2 68 15 32 100 88 100 91 100 100 100 93 99 98
97 1 100 10 98 25 100 100 100 0 0 0 0 0 0 0 0 0 4 5 1 5 5 9 64 43 3 0 0 0 0 0 0 0 14 0 0 0 1 5 9 97 100 98 100 100 100 100 70
10 99 77 75 85 84 7 50 99 89 3 0 0 0 0 0 0 0 0 4 0 1 5 5 90 5 4 0 0 0 0 0 0 12 5 5 1 0 5 32 54 99 71 79 73 100 80 99 100
82 54 62 99 88 100 100 94 100 100 41 0 0 0 0 0 0 0 0 0 0 0 3 9 15 56 2 20 41 5 4 5 2 47 1 25 31 5 71 35 43 70 100 74 81 58 100 92 100
64 6 60 100 99 73 8 80 100 99 100 0 5 0 24 1 34 11 0 0 0 0 0 9 27 17 86 96 5 5 6 5 5 5 98 5 6 85 70 43 42 43 64 96 68 43 100 100 100

GFSSGP_prec_cloud_102.txt.gz
Cloud_Cover
0 0 60 98 75 44 9 0 0 0 0 0 0 0 2 4 0 42 52 4 0 0 75 100 100 51 27 53 100 100 94 68 100 100 100 94 70 39 100 100 100 100 100 100 86 38 5 5 5
7 100 99 87 80 77 5 0 0 0 0 3 2 75 9 3 0 11 15 22 0 0 2 53 100 99 100 68 84 100 100 100 99 99 98 100 97 100 100 100 100 81 69 100 100 48 37 50 73
5 37 54 93 76 60 15 3 0 0 0 3 3 0 0 0 3 20 1 25 5 1 0 0 6 14 100 100 48 43 100 100 95 98 100 100 99 100 100 100 100 50 100 99 56 32 63 17 5
8 36 99 100 100 58 4 1 5 0 0 0 0 0 0 0 12 5 2 42 0 5 5 0 0 0 0 81 100 33 68 100 100 100 100 100 100 95 98 77 100 100 100 100 8 15 5 5 16
3 100 100 100 100 100 80 0 7 0 0 0 0 0 0 0 0 4 2 5 7 11 5 5 2 0 0 0 1 13 79 72 100 100 100 100 98 100 92 80 84 100 100 50 18 62 5 5 7
94 100 100 100 100 100 70 24 100 27 0 0 0 0 0 0 0 4 5 3 63 5 13 92 98 1 0 0 1 0 5 7 97 100 100 100 97 100 98 98 100 100 87 5 90 62 19 34 100
10 100 100 100 100 100 39 84 0 100 38 0 0 0 0 0 0 0 0 0 26 1 5 23 97 5 5 0 3 3 3 6 66 96 100 100 100 100 100 99 81 88 100 92 100 90 18 51 35
24 62 100 100 100 100 71 100 30 10 2 0 0 0 0 0 0 0 0 0 81 0 5 5 88 61 94 0 0 17 5 5 6 5 47 12 91 100 100 100 100 96 96 43 100 100 66 5 5
1 38 99 100 100 100 100 100 80 5 8 2 0 0 0 0 0 0 0 0 48 2 0 14 12 82 100 2 0 4 5 20 99 25 4 5 22 76 100 100 100 99 82 100 100 100 40 12 4
1 67 100 100 100 100 100 100 35 7 99 71 100 86 3 60 0 0 0 0 0 3 16 16 84 42 92 20 0 0 4 4 100 100 100 14 5 5 6 43 100 97 100 100 100 88 71 15 5
35 83 22 100 100 100 100 32 100 25 76 89 100 100 76 5 0 0 0 0 0 0 24 27 5 37 50 23 0 1 0 0 44 100 60 100 98 100 69 52 61 14 60 100 100 19 12 5 5
0 3 5 4 3 10 91 58 13 1 5 98 100 100 94 0 0 0 0 0 0 0 0 6 5 42 24 61 4 0 0 7 5 86 23 97 100 99 70 95 9 5 5 5 5 0 5 5 5
0 0 0 0 0 0 0 3 5 4 0 70 98 96 15 0 0 0 0 0 0 0 0 0 0 22 24 95 96 39 96 16 5 3 3 1 5 61 5 99 68 6 4 3 43 5 0 5 16
0 0 0 0 0 0 0 0 4 4 2 96 52 1 0 0 0 0 0 0 0 0 0 0 0 4 52 74 100 100 25 72 2 6 0 0 13 100 16 46 55 5 8 5 5 7 98 5 76
0 0 0 0 0 0 0 0 0 0 3 8 6 0 0 0 0 0 0 0 0 0 0 4 4 0 0 8 8 46 100 95 98 99 100 21 2 6 99 8 5 43 5 86 98 22 6 33 93
0 0 0 0 0 0 0 0 0 1 3 61 88 81 23 0 0 4 0 0 0 0 0 0 5 9 5 0 0 0 4 44 37 69 100 14 5 5 5 5 5 15 93 67 85 76 34 24 5
0 0 0 0 0 0 0 0 0 2 3 98 61 100 90 0 0 3 5 1 0 0 0 0 0 2 9 2 2 0 0 0 1 5 26 50 28 6 5 5 5 84 52 100 100 66 100 97 21
0 0 0 0 0 0 2 0 0 0 0 36 95 58 40 2 15 1 4 3 3 1 0 0 2 2 0 2 5 0 0 0 0 0 0 5 93 34 4 3 98 100 100 89 27 35 92 100 94
0 0 0 0 0 0 0 0 5 9 64 0 3 100 96 8 69 41 0 5 0 0 1 0 0 4 5 1 5 5 0 3 5 0 0 3 20 85 48 5 100 100 100 100 83 23 94 96 74
0 0 0 0 0 0 0 0 0 0 0 4 1 0 0 0 2 4 5 2 4 0 0 0 0 0 0 0 0 5 0 4 5 5 5 5 1 5 77 100 98 100 100 57 78 28 22 100 100
0 0 0 0 0 0 0 0 0 0 0 5 1 0 2 0 0 4 5 0 5 2 1 0 0 0 0 1 0 1 0 0 59 9 3 10 62 76 5 13 96 96 98 26 32 36 97 5 61
0 0 0 0 0 0 0 0 0 0 35 27 94 2 0 0 0 0 1 0 0 0 4 0 0 0 0 5 2 0 5 0 0 0 0 1 67 43 6 73 98 85 94 45 81 55 100 100 99
0 0 0 0 0 0 0 1 1 98 100 100 96 98 90 2 0 0 0 0 0 0 4 5 0 0 0 5 4 4 2 2 0 0 0 0 82 99 100 97 100 100 100 99 94 27 6 74 100
0 0 0 0 0 0 32 45 50 35 100 60 94 13 18 32 3 0 0 0 0 0 1 0 0 0 0 0 10 0 0 3 0 0 11 85 26 57 97 100 100 100 100 100 99 64 5 38 100
0 0 0 2 5 29 99 77 3 56 96 10 84 100 58 100 100 100 10 0 0 0 0 19 3 4 0 0 2 2 0 0 4 0 0 48 92 33 100 88 100 100 100 100 100 11 5 83 100
0 0 0 4 4 0 2 71 21 19 19 79 100 100 100 49 98 100 8 0 0 2 1 16 3 5 0 0 0 0 0 0 4 0 0 0 39 9 60 84 100 98 84 52 58 53 26 100 100
0 0 5 5 1 14 7 21 100 49 100 100 100 100 52 99 94 7 96 7 0 0 0 0 0 5 0 0 0 0 0 0 4 0 0 0 0 5 0 0 0 0 4 0 13 6 5 21 47
42 3 1 20 86 7 88 10 73 36 100 68 100 97 100 100 100 100 57 99 0 0 0 0 0 0 0 0 0 0 0 0 0 1 0 0 0 0 0 0 0 0 0 0 0 5 5 5 6
53 100 12 1 28 5 39 97 8 2 100 61 92 100 100 100 100 100 100 37 0 0 0 0 0 0 0 0 0 0 0 0 0 0 0 0 0 0 0 0 0 0 0 0 0 0 4 5 1
17 5 5 5 4 99 90 8 31 1 32 75 100 100 100 100 100 100 100 100 81 0 0 0 0 0 0 0 0 0 15 0 0 0 0 0 0 0 0 0 0 0 0 0 0 0 0 5 1

GFSSGP_prec_cloud_105.txt.gz
Cloud_Cover
3 87 100 100 100 87 99 92 14 0 0 0 0 0 0 0 0 0 0 0 0 10 29 50 50 100 100 14 99 95 31 89 100 100 100 100 100 99 8 99 97 13 100 90 67 33 11 22 11
5 100 100 100 100 100 100 100 100 0 0 0 0 0 0 3 0 0 0 0 0 0 10 52 100 30 32 99 100 97 99 21 100 100 100 100 100 23 99 100 100 100 100 100 100 100 100 77 34
5 100 100 100 100 100 100 100 100 17 0 0 0 0 0 8 8 3 4 0 0 0 4 100 100 100 37 98 98 100 64 51 60 100 100 100 98 99 100 100 100 100 13 75 49 95 73 29 5
86 100 100 100 100 100 100 100 100 92 23 0 0 0 0 0 5 5 4 5 5 5 5 56 100 100 64 100 97 100 100 7 58 65 100 100 98 100 100 61 100 100 67 100 100 100 5 5 20
42 100 100 100 100 100 100 100 100 100 100 0 0 0 0 0 0 2 2 57 5 5 25 45 2 23 100 100 100 100 97 100 78 56 46 49 68 83 36 14 10 94 100 100 100 57 7 46 7
89 100 100 100 100 100 100 100 100 100 100 14 0 0 0 0 0 0 0 1 69 5 5 5 5 5 4 0 4 100 40 78 100 100 37 23 64 93 5 42 5 44 89 100 100 44 5 5 5
100 100 100 100 100 100 100 89 100 98 98 2 2 0 0 0 0 0 0 0 0 5 5 5 7 5 59 3 0 21 100 100 72 100 94 100 92 55 53 24 36 96 100 100 100 15 6 5 54
100 100 100 100 100 100 100 100 100 90 5 9 0 0 0 19 1 0 0 0 0 51 4 5 68 80 51 1 0 4 0 10 100 100 78 100 100 100 100 23 43 65 54 97 10 74 98 5 47
0 99 99 100 100 100 100 99 100 100 77 6 6 96 96 12 89 0 0 0 0 0 4 5 97 70 5 0 0 3 5 3 4 49 77 100 29 100 100 75 59 90 32 30 6 92 89 39 66
0 62 36 100 100 100 100 100 100 100 56 9 1 100 100 100 68 31 0 0 0 0 2 2 97 33 14 0 0 4 5 5 4 0 8 100 7 11 88 94 93 67 86 61 32 47 100 99 6
0 19 98 8 9 58 100 100 100 100 79 3 2 100 100 100 100 93 0 0 0 0 0 0 5 8 5 0 0 0 0 5 5 2 0 0 0 6 100 65 78 92 37 80 100 51 40 100 47
0 0 27 98 5 0 0 0 87 100 100 5 2 96 87 100 71 41 0 0 0 0 0 0 5 48 6 3 1 2 0 0 68 5 30 46 16 60 23 12 49 80 5 5 32 5 79 6 1
0 0 0 0 0 0 0 0 3 11 95 29 100 71 44 100 41 0 0 0 0 0 0 0 2 29 68 69 6 5 81 3 5 73 28 84 100 78 100 52 11 80 5 5 5 5 4 0 0
0 0 0 0 0 0 0 0 0 0 56 8 100 100 73 63 80 0 4 0 0 0 0 0 0 4 13 96 68 66 56 100 92 84 98 28 40 25 7 5 67 18 0 0 0 2 0 0 3
0 0 0 0 0 0 0 0 0 0 0 93 6 10 29 5 57 0 0 0 0 0 0 0 0 0 0 1 13 94 98 100 100 100 100 100 13 5 7 18 1 4 2 1 4 1 3 5 5
0 0 0 0 0 0 0 0 0 0 0 0 94 4 9 64 51 1 0 0 0 0 0 0 0 0 0 0 0 7 10 34 99 79 100 100 5 5 5 5 5 5 5 4 37 6 5 5 4
0 0 0 0 0 0 0 0 0 0 0 40 75 66 14 7 67 4 0 0 0 0 0 0 0 0 0 5 5 4 1 0 50 100 100 54 49 15 3 2 5 3 4 26 5 4 5 5 5
0 0 0 0 0 0 0 0 0 0 0 4 43 100 100 19 5 5 1 0 0 3 0 0 0 0 0 0 0 0 0 4 1 22 10 2 11 65 5 4 11 40 5 5 13 11 5 5 45
0 0 0 0 0 0 0 0 0 0 0 0 0 96 3 7 15 5 5 0 0 0 5 0 0 0 0 0 0 0 0 0 0 0 0 0 0 5 27 5 2 92 28 21 91 100 64 64 8
0 0 0 0 0 0 0 0 0 0 0 0 0 19 100 100 100 8 5 3 0 0 4 3 0 0 0 0 0 0 0 0 0 0 0 1 0 5 5 6 14 56 100 100 65 82 85 21 7
0 0 0 0 0 0 0 0 0 0 0 0 0 4 7 67 98 80 0 0 0 0 5 5 4 0 0 0 0 0 0 5 2 1 5 0 0 4 42 12 18 91 100 100 100 100 35 11 90
0 0 0 0 0 0 0 0 0 0 0 0 0 0 0 0 3 5 0 0 0 0 4 5 5 3 0 0 0 0 0 0 5 1 0 0 4 3 9 5 44 100 100 100 100 100 100 95 97
0 0 0 0 0 0 0 0 0 0 0 48 70 93 84 5 7 100 100 0 0 0 0 5 10 0 0 0 0 0 0 0 2 1 0 0 5 46 31 56 88 100 100 100 100 100 100 100 100
0 0 0 0 0 0 0 75 49 32 0 37 69 99 94 70 100 100 69 0 0 0 0 0 5 0 0 0 0 0 0 0 0 0 0 1 5 58 22 100 100 100 100 100 100 100 100 100 100
0 0 0 0 0 0 0 42 92 100 52 47 7 54 95 98 100 100 2 0 0 0 0 0 0 0 0 0 0 0 0 0 0 0 0 0 76 10 24 58 100 100 73 100 100 89 99 100 100
0 0 0 0 0 0 0 3 96 14 1 96 5 14 7 83 100 22 0 20 41 2 0 0 0 0 0 0 0 0 0 0 0 0 0 5 16 68 6 65 5 14 14 46 94 99 100 100 100
0 0 1 0 0 0 0 17 6 33 10 22 99 53 100 100 99 100 56 100 100 100 100 100 68 0 0 0 0 0 0 0 0 0 0 1 58 7 0 2 0 0 0 4 22 6 4 10 5
0 9 82 9 2 0 0 0 0 4 27 40 96 98 100 100 100 100 100 100 100 100 100 100 100 100 10 20 1 0 0 0 0 0 0 0 0 0 0 0 0 0 0 0 0 9 4 12 20
0 2 13 5 5 3 0 0 0 0 1 4 78 100 100 100 100 100 100 100 100 100 100 100 58 100 12 12 46 4 0 0 0 0 0 0 0 0 0 0 0 0 0 0 0 0 0 3 9
0 0 4 0 0 0 0 3 0 0 0 3 5 84 100 100 100 100 100 100 100 100 100 100 100 55 0 38 59 39 3 0 0 0 5 4 27 51 26 15 5 5 0 0 0 0 0 0 7

GFSSGP_prec_cloud_111.txt.gz
Cloud_Cover
97 100 100 100 100 59 100 38 69 50 84 13 15 0 0 0 0 0 0 4 6 65 100 100 100 100 98 100 100 88 100 100 100 100 100 100 100 100 100 91 100 100 100 87 96 89 100 38 58
93 100 100 100 100 73 100 100 5 65 93 100 3 0 0 0 0 0 0 0 5 42 100 100 100 100 100 100 99 100 100 93 92 100 100 91 100 100 100 100 97 28 49 100 80 100 92 46 58
99 91 100 99 100 89 80 100 5 43 36 53 0 0 0 0 0 0 0 1 1 5 4 54 100 100 100 100 100 98 100 81 85 96 100 100 92 100 100 100 100 9 6 8 99 100 46 36 92
6 42 34 99 100 99 92 100 10 92 100 100 17 4 0 0 0 0 0 0 4 3 20 5 100 100 100 100 100 60 100 100 98 97 84 100 100 100 100 98 100 90 100 100 89 100 46 96 100
5 40 79 73 100 100 99 92 99 96 85 91 97 68 3 0 0 0 0 0 0 4 25 5 5 7 56 5 94 99 94 90 100 100 100 92 100 87 100 98 28 76 69 100 100 100 100 86 100
95 34 91 89 100 100 100 100 82 82 99 90 73 99 63 5 25 2 0 0 2 4 89 9 5 5 5 5 5 52 100 98 96 100 100 100 97 100 100 10 93 28 49 100 100 41 5 80 52
100 89 100 83 99 100 98 98 79 100 100 20 89 79 100 97 53 18 0 0 0 2 28 99 31 5 5 1 17 30 100 100 93 100 100 100 100 100 58 9 82 79 94 18 14 5 6 28 5
90 50 94 100 100 100 98 91 100 100 100 95 100 96 71 100 99 26 1 0 0 3 24 32 25 4 5 4 15 5 5 19 100 100 100 100 100 100 100 100 26 98 100 88 5 5 7 5 50
0 66 38 56 100 64 98 92 86 100 100 100 93 84 84 100 89 18 0 1 8 32 43 49 26 0 0 0 66 98 63 27 100 100 100 100 71 96 100 100 92 99 84 26 8 5 10 23 8
0 0 0 17 9 48 15 95 100 36 4 92 95 64 60 100 65 13 0 18 50 46 42 38 39 39 7 3 0 44 97 91 87 100 100 100 100 64 26 64 100 100 100 38 7 15 72 57 46
0 0 0 0 0 0 1 5 2 3 0 2 69 96 20 100 100 83 2 0 7 2 25 90 98 65 45 31 15 2 5 8 0 87 100 100 100 100 99 91 84 100 100 100 97 100 78 33 40
0 0 0 0 0 0 0 0 5 5 3 1 5 5 23 95 100 93 97 0 0 0 0 34 99 98 62 33 31 10 54 50 31 15 72 100 100 100 100 100 100 98 100 100 100 60 94 23 5
0 0 0 0 0 0 0 0 0 1 5 2 6 71 84 89 100 100 100 100 0 0 0 0 9 90 100 15 38 45 90 100 97 22 97 100 100 100 100 100 95 34 100 61 84 32 55 32 5
0 0 0 0 0 0 0 0 0 0 2 0 0 1 58 100 71 83 76 58 1 0 0 0 0 2 99 100 94 70 76 100 100 100 67 14 23 70 100 77 29 60 52 100 100 100 28 52 6
0 0 0 0 0 0 0 0 0 0 0 0 0 0 0 97 100 96 43 94 49 0 0 0 0 4 4 88 100 100 100 100 100 100 98 65 50 39 91 71 80 12 52 65 23 80 14 10 5
0 0 0 0 0 0 0 0 0 0 0 0 0 0 0 4 97 48 74 97 93 7 1 0 0 0 3 6 98 100 100 100 100 98 100 99 91 79 5 16 54 100 99 25 44 6 3 2 0
0 0 0 0 0 0 0 0 0 0 0 0 0 0 0 0 1 3 8 84 100 65 6 5 0 0 0 5 22 96 100 100 100 100 100 100 93 59 14 8 6 12 28 23 21 29 0 0 0
0 0 0 0 0 0 0 0 0 0 0 0 0 0 0 0 3 85 100 61 91 100 5 5 5 0 0 1 4 12 53 88 100 100 100 100 100 94 42 5 5 7 16 25 62 18 20 0 5
0 0 0 0 0 0 0 0 0 0 0 0 0 0 0 0 25 92 99 100 95 91 52 19 5 5 2 0 1 0 0 6 50 100 100 100 81 41 32 5 7 6 5 37 100 9 2 13 5
0 0 0 0 0 0 0 0 0 0 0 0 0 0 4 0 0 0 36 42 100 94 99 19 6 9 5 12 15 5 3 0 10 58 21 4 4 5 5 68 10 26 8 8 18 5 9 6 25
0 0 0 0 0 0 0 0 0 0 0 0 0 0 3 97 84 27 0 1 11 46 88 6 55 93 72 64 15 5 5 5 8 62 100 29 1 4 4 5 5 12 23 5 5 33 10 42 63
0 0 0 0 0 0 0 0 0 0 0 0 0 0 0 80 98 94 10 5 5 13 8 20 47 34 60 96 50 58 7 70 5 9 42 5 84 3 0 5 5 5 28 48 85 100 100 100 100
0 0 0 0 0 0 0 0 0 0 0 0 0 0 1 100 11 80 90 2 0 15 5 0 4 0 40 96 95 65 50 80 5 5 0 4 24 85 5 1 5 5 44 96 76 98 100 99 100
0 0 0 0 0 0 0 0 0 0 0 0 0 0 2 89 77 30 76 100 94 15 9 0 0 0 21 71 100 30 100 100 93 16 2 5 5 64 98 87 5 5 17 84 100 97 100 100 100
0 0 0 0 0 0 0 0 0 0 0 0 0 0 0 0 0 30 20 0 92 100 24 4 3 0 2 5 40 67 94 70 100 100 5 0 2 9 31 94 84 80 64 100 100 100 100 95 89
0 0 0 0 0 0 0 0 0 0 0 0 0 0 0 0 8 71 88 6 5 10 31 6 0 0 5 5 5 99 5 100 32 96 64 4 0 1 5 100 100 100 100 100 100 100 100 100 100
0 0 0 0 0 0 0 0 0 3 5 0 2 4 0 3 11 29 77 89 100 11 1 5 1 0 0 5 1 30 79 5 88 100 87 39 1 0 1 13 48 98 100 100 100 100 100 100 100
0 0 0 0 0 0 0 0 0 0 0 0 0 0 0 0 4 100 100 100 54 70 2 4 3 0 1 5 69 5 86 6 3 29 6 5 1 0 0 23 0 16 91 100 100 87 95 100 100
0 0 0 0 0 0 0 0 0 0 0 0 0 0 0 1 32 82 100 100 5 4 4 83 99 93 2 0 35 1 100 95 4 0 0 4 2 0 0 0 1 14 62 100 100 100 100 100 100
0 0 0 0 0 0 0 0 0 0 0 0 0 0 0 39 2 97 100 88 100 3 0 17 100 100 100 3 0 0 57 41 38 46 5 0 4 19 100 98 38 5 8 99 100 100 100 100 100

GFSSGP_prec_cloud_117.txt.gz
Cloud_Cover
18 51 89 95 85 82 64 91 100 1 0 5 5 3 4 0 0 0 0 0 0 0 6 6 48 100 62 72 94 100 100 100 100 100 100 100 100 100 100 100 100 100 99 87 100 99 100 68 53
1 4 54 99 62 54 7 61 47 2 3 26 5 18 49 7 0 3 2 0 0 0 55 11 7 100 55 95 98 100 100 100 100 100 100 100 100 100 100 100 100 100 100 100 83 100 97 94 42
5 36 48 65 38 44 55 96 4 4 4 5 5 3 73 4 0 2 24 5 5 3 18 9 5 24 83 96 100 100 100 100 100 100 100 100 100 100 100 100 100 100 100 95 100 100 98 51 93
72 19 6 76 52 6 82 78 5 0 0 5 4 4 4 3 2 3 77 66 5 37 2 4 100 57 96 100 100 100 100 100 100 100 100 100 100 100 100 100 100 100 100 99 100 100 99 100 100
5 10 5 100 59 73 96 20 8 48 8 85 30 31 3 2 0 1 5 100 5 9 58 28 95 100 100 100 100 100 100 100 100 100 100 100 100 100 60 86 100 100 100 100 44 100 88 100 44
2 4 14 60 44 55 54 37 52 78 6 6 59 3 15 5 5 5 10 98 13 93 44 27 61 100 100 100 100 100 100 100 100 91 100 82 100 100 100 95 90 100 100 100 86 96 23 75 34
0 0 4 5 29 79 18 5 5 5 5 3 55 93 5 43 49 2 90 32 76 77 73 12 4 89 100 100 100 100 100 100 79 96 96 100 100 100 93 35 99 96 57 36 23 85 26 16 5
0 0 2 2 5 2 19 11 3 5 30 69 96 9 34 5 4 1 30 55 75 19 5 5 3 57 100 100 100 100 100 100 100 97 100 100 99 95 100 65 100 100 22 5 45 52 82 19 5
0 0 0 0 0 0 0 1 2 4 0 0 0 4 5 100 5 0 3 33 5 12 5 5 6 9 94 100 100 100 95 100 100 100 100 100 100 100 100 100 83 98 75 8 5 97 6 81 4
0 0 0 0 0 0 0 0 0 0 0 1 0 5 5 7 5 1 5 22 5 1 2 5 8 0 18 100 100 100 100 99 99 100 100 100 100 100 100 100 98 5 74 6 6 37 5 6 9
0 0 0 0 0 0 0 0 0 0 0 0 0 5 15 1 27 38 6 81 5 4 1 36 8 9 0 0 25 85 100 93 79 100 100 100 100 100 98 100 100 100 49 81 5 5 13 30 6
0 0 0 0 0 0 0 0 0 0 0 0 0 0 1 52 4 5 0 12 78 8 0 5 26 42 1 0 0 1 3 51 76 20 100 100 100 83 100 100 100 100 56 96 100 92 100 6 97
0 0 0 0 0 0 0 0 0 0 0 0 0 0 1 5 5 2 4 4 99 12 0 0 100 80 28 43 0 5 1 2 3 36 73 100 100 99 100 100 82 85 26 100 84 45 29 18 76
0 0 0 0 0 0 0 0 0 0 0 0 0 0 0 0 5 5 45 54 13 9 0 0 41 78 51 72 35 10 5 31 3 31 33 100 100 100 100 70 46 52 8 13 71 27 45 30 31
0 0 0 0 0 0 0 0 0 0 0 0 0 0 0 0 21 3 32 30 69 41 5 0 3 16 83 86 51 18 38 95 52 56 62 100 100 100 100 85 93 100 84 83 66 91 90 96 31
0 0 0 0 0 0 0 0 0 0 0 0 0 0 0 0 4 66 4 25 5 82 92 6 1 0 68 5 72 62 45 89 98 95 100 100 100 100 100 100 100 100 99 96 100 99 85 77 6
0 0 0 0 0 0 0 0 0 0 0 0 0 0 0 0 2 5 3 56 81 95 83 88 10 3 5 12 5 8 98 97 98 49 100 99 98 100 100 100 87 76 88 100 73 69 33 100 97
0 0 0 0 0 0 0 0 0 0 0 0 0 0 0 0 0 0 4 5 100 33 66 70 100 56 10 33 15 7 43 53 99 69 92 99 88 75 96 35 31 34 47 36 45 38 37 10 16
0 0 0 0 0 0 0 0 0 0 0 0 0 0 0 0 0 0 5 0 100 100 100 97 89 100 65 72 54 5 5 5 5 5 63 97 100 81 14 5 5 30 28 21 35 32 47 30 33
0 0 0 0 0 0 0 0 0 0 0 0 0 0 0 0 0 0 0 0 93 99 100 84 89 93 100 88 100 20 5 55 11 5 59 74 79 55 5 5 7 27 5 7 6 26 5 16 28
0 0 0 0 0 0 0 0 0 0 0 0 0 0 0 0 0 0 0 0 0 3 49 89 5 7 49 96 84 66 67 62 5 5 5 5 28 5 5 5 5 9 13 6 7 28 27 15 12
0 0 0 0 0 0 0 0 0 0 0 0 0 0 0 0 0 0 0 0 0 0 0 9 5 99 88 5 22 5 76 99 81 5 5 5 100 4 1 3 6 6 5 2 10 14 22 88 19
0 0 0 0 0 0 0 0 0 0 0 0 0 0 0 0 0 0 0 0 0 5 5 29 6 2 73 71 5 75 12 41 86 10 5 5 5 4 5 2 5 7 5 5 6 26 43 38 100
0 0 0 0 0 0 0 0 0 0 0 0 0 0 0 0 0 0 0 0 0 0 0 5 8 60 5 79 60 12 100 36 93 28 5 5 4 5 5 4 4 5 2 4 6 47 100 100 100
0 0 0 0 0 0 0 0 0 0 0 0 0 0 0 0 0 0 0 0 0 0 0 0 2 2 37 5 5 100 100 67 12 5 15 52 7 2 5 0 5 4 0 5 5 88 100 100 100
0 0 0 0 0 0 0 0 0 0 0 0 0 0 0 0 0 0 0 0 0 0 0 0 1 19 4 100 48 25 72 2 16 98 11 6 36 78 0 2 5 5 0 5 21 99 100 100 100
0 0 0 0 0 0 0 0 0 0 0 0 0 0 0 0 0 0 0 0 0 0 0 0 29 32 0 59 64 32 5 9 6 3 92 5 5 95 47 4 5 5 5 5 88 100 84 99 100
0 0 0 0 0 0 0 0 0 0 0 0 0 0 0 0 0 0 0 0 0 0 0 0 28 48 42 63 90 25 3 6 43 6 10 37 5 42 87 23 6 5 24 86 97 91 86 100 100
0 0 0 0 0 0 0 0 0 0 0 0 0 0 0 0 0 0 0 0 0 0 0 1 4 4 12 97 98 90 71 20 85 45 42 46 9 5 4 5 5 88 100 100 97 100 100 99 96
0 0 0 0 3 0 0 0 0 0 0 0 0 0 0 0 0 0 0 0 0 0 0 0 99 33 31 50 78 100 100 99 100 90 78 99 41 5 5 0 5 95 100 100 100 100 100 88 82

GFSSGP_prec_cloud_123.txt.gz
Cloud_Cover
91 100 27 8 87 100 100 76 5 0 3 5 3 0 0 2 16 50 0 21 95 35 11 4 96 81 100 100 100 100 100 100 100 100 56 100 80 46 83 83 28 5 7 97 7 69 99 91 100
5 5 9 22 95 95 90 70 0 3 4 5 3 4 2 0 0 0 0 20 100 14 8 59 18 99 100 100 100 100 100 100 100 100 100 100 100 100 98 14 49 87 28 62 92 100 100 100 100
0 2 5 88 70 100 98 82 5 15 81 5 2 0 5 5 0 1 0 0 89 8 0 11 53 41 100 100 100 100 100 100 99 100 100 100 100 100 100 100 5 23 35 100 84 46 13 100 100
4 2 51 100 100 100 100 82 96 72 100 4 5 0 5 1 0 0 5 0 0 100 0 5 25 80 100 90 100 100 100 100 100 100 100 100 100 100 100 86 10 58 42 32 97 43 55 90 100
1 100 19 85 96 84 72 94 100 99 39 94 86 0 0 5 1 0 5 5 8 84 0 5 5 10 100 100 100 100 100 100 100 100 100 98 94 100 100 78 55 93 95 90 99 94 43 98 100
3 100 98 46 96 98 77 88 94 93 98 10 35 0 0 0 0 0 5 5 15 45 0 5 5 16 97 100 100 95 100 100 100 100 100 100 100 98 98 100 100 100 100 99 99 100 52 84 61
0 80 75 87 99 76 40 20 94 83 75 0 8 2 0 4 0 0 2 5 0 23 0 2 49 86 100 93 72 85 100 100 100 100 100 100 100 100 92 100 100 100 98 100 100 100 100 17 93
0 5 8 48 79 16 5 58 5 5 2 0 0 22 0 0 0 0 0 0 0 2 0 0 15 52 100 100 92 99 96 100 100 100 100 100 100 100 100 100 100 99 100 100 93 100 86 63 96
0 54 37 4 5 5 4 4 4 0 0 0 1 0 0 0 0 0 0 0 0 0 25 0 14 100 100 100 100 98 100 95 100 100 100 100 100 100 100 100 100 100 99 100 98 100 93 62 71
9 5 3 0 2 0 5 5 2 3 0 7 28 0 0 0 0 0 0 0 0 0 7 24 5 100 100 100 100 100 100 100 91 88 82 100 100 100 100 100 100 95 94 32 95 98 95 36 82
4 3 1 0 1 0 0 1 5 4 4 4 0 1 4 0 0 0 0 4 3 0 0 5 30 100 100 100 100 100 100 100 100 94 81 100 100 100 98 100 100 100 100 54 100 100 27 100 64
0 0 0 0 0 0 0 0 0 0 2 0 0 0 4 1 1 0 0 0 5 0 0 0 6 67 100 100 100 100 100 100 100 100 100 97 99 100 100 100 100 100 100 100 100 100 51 88 88
0 0 0 0 0 0 0 0 0 0 0 0 0 0 5 5 5 0 0 0 24 5 0 0 2 0 89 100 100 100 100 97 100 100 100 100 100 100 100 100 100 100 100 100 98 100 35 100 48
0 0 0 0 0 0 0 0 0 0 0 0 0 0 2 0 5 2 5 0 1 5 0 1 0 3 2 4 75 100 100 100 70 98 100 100 100 100 100 100 100 100 100 100 90 51 99 47 5
0 0 0 0 0 0 0 0 0 0 0 0 0 0 0 0 4 4 0 0 2 0 0 0 0 0 5 5 1 6 100 100 100 100 86 89 98 100 100 100 100 100 100 100 100 23 14 100 100
0 0 1 0 0 0 0 1 0 0 0 0 0 0 0 0 0 2 3 21 4 4 2 1 0 0 0 11 14 10 3 22 80 100 100 100 97 100 100 100 100 100 100 98 85 62 13 5 32
0 1 0 0 0 0 0 0 0 0 0 0 0 0 0 0 0 0 0 2 4 4 5 8 5 1 2 5 86 25 95 52 6 10 19 63 96 100 100 100 100 100 100 100 97 7 4 5 6
1 0 0 0 0 0 0 0 0 0 0 0 0 0 0 0 0 0 0 0 3 0 4 39 2 5 6 16 5 21 5 60 54 69 71 49 27 23 30 100 100 100 100 100 51 8 31 16 7
0 0 0 0 0 0 0 0 0 0 0 0 0 0 0 0 0 0 0 0 0 0 4 93 43 5 5 91 42 6 5 12 49 89 46 6 5 37 9 75 100 98 100 58 56 16 99 100 100
0 0 0 0 0 0 0 0 0 0 0 0 0 0 0 0 0 0 0 0 8 8 4 3 77 62 84 61 81 98 17 10 82 90 5 100 16 97 100 100 99 67 49 100 92 94 100 100 100
0 0 0 0 0 0 0 1 0 0 0 0 0 0 0 0 0 0 0 9 18 20 5 6 21 58 81 34 12 94 100 76 37 11 12 18 100 78 100 100 75 99 100 77 100 80 100 100 98
0 0 0 0 0 16 0 28 3 0 0 0 0 0 0 0 0 0 0 0 7 54 26 100 76 91 91 7 90 80 100 100 84 46 59 94 64 54 50 92 100 100 100 80 100 100 93 6 75
0 0 0 0 0 0 3 1 98 0 4 4 1 0 0 0 0 0 0 0 0 0 0 3 76 38 7 0 13 19 100 84 64 5 98 100 93 12 60 99 83 100 100 99 8 5 12 62 89
0 0 0 0 1 8 23 1 6 59 54 6 0 0 0 0 0 0 0 0 0 0 0 0 30 83 23 12 62 6 27 8 31 16 78 100 89 6 79 6 92 99 59 15 16 10 86 42 20
0 0 1 31 97 100 7 0 0 0 0 0 0 0 0 0 0 0 0 0 0 0 0 0 0 0 1 6 99 61 5 5 99 90 99 91 69 56 6 5 100 100 68 5 5 48 74 98 100
0 0 0 0 5 4 5 3 27 0 0 0 0 0 0 0 0 0 0 0 0 0 0 0 0 0 0 1 2 20 98 47 12 81 97 86 100 45 6 5 66 100 100 51 63 78 100 100 100
4 0 1 0 0 1 5 69 18 1 0 0 0 0 1 0 0 0 0 0 0 0 0 0 0 0 0 0 2 0 5 26 7 100 61 88 99 36 100 37 45 76 9 16 100 36 15 100 100
0 0 0 2 4 2 18 5 52 11 11 2 5 4 0 0 0 0 0 0 0 0 0 0 0 0 0 0 0 35 4 4 4 3 92 48 25 97 66 94 5 46 0 2 6 4 51 99 100
2 1 3 1 0 0 4 19 9 2 28 9 1 1 0 0 0 0 0 0 0 0 0 0 0 0 0 0 5 12 38 42 40 6 0 32 16 100 94 7 84 3 5 2 1 0 5 58 75
0 0 0 0 2 5 4 1 22 0 0 0 2 0 0 0 0 0 0 0 0 0 0 0 0 0 0 0 0 1 0 12 51 27 11 0 4 82 100 22 56 6 3 2 5 2 85 7 42